Regional Weather Roundup
Issued by NWS Charleston, WV

Home | Current Version | Previous Version | Text Only | Print | Product List | Glossary On
Versions: 1 2 3 4 5 6 7 8 9 10 11 12 13 14 15 16 17 18 19 20 21 22 23 24 25 26 27 28 29 30 31 32 33 34 35 36 37 38 39 40 41 42 43 44 45 46 47 48 49 50
000
ASUS41 KRLX 210510
RWRRLX
West Virginia Regional Weather Roundup
National Weather Service Charleston WV
100 AM EDT TUE OCT 21 2014

Note: "fair" indicates few or no clouds below 12,000 feet with no
significant weather and/or obstructions to visibility.

WVZ003-210600-
Northern Panhandle of West Virginia

CITY           SKY/WX    TMP DP  RH WIND       PRES   REMARKS
WHEELING       RAIN      50  46  86 SW8       29.87S FOG
$$

WVZ009-210600-
Northwest West Virginia

CITY           SKY/WX    TMP DP  RH WIND       PRES   REMARKS
PARKERSBURG    MOCLDY    52  47  83 SW7       29.91F
$$

WVZ006-210600-
Western West Virginia

CITY           SKY/WX    TMP DP  RH WIND       PRES   REMARKS
HUNTINGTON     PTCLDY    51  48  89 S6        29.91F
$$

WVZ015-210600-
West Central West Virginia

CITY           SKY/WX    TMP DP  RH WIND       PRES   REMARKS
CHARLESTON     CLOUDY    51  50  96 S6        29.92F
$$

WVZ022-031-210600-
North Central West Virginia

CITY           SKY/WX    TMP DP  RH WIND       PRES   REMARKS
CLARKSBURG     MOCLDY    51  46  83 S5        29.89F
MORGANTOWN     CLOUDY    55  45  68 SW3       29.89F
$$

WVZ025-035-042-045-210600-
Southern West Virginia

CITY           SKY/WX    TMP DP  RH WIND       PRES   REMARKS
BECKLEY        MOCLDY    50  45  83 SW7       29.96F
LOGAN          MOCLDY    54  48  82 SW5       29.94F
BLUEFIELD      CLOUDY    52  43  71 W7        29.98F
LEWISBURG      CLOUDY    50  47  90 CALM      29.96S
$$

WVZ047-210600-
Northern Mountains of West Virginia

CITY           SKY/WX    TMP DP  RH WIND       PRES   REMARKS
ELKINS         CLOUDY    48  47  96 CALM      29.93F
$$

WVZ052-210600-
Eastern Panhandle of West Virginia

CITY           SKY/WX    TMP DP  RH WIND       PRES   REMARKS
MARTINSBURG    CLOUDY    51  48  89 W5        29.90F
PETERSBURG     MOCLDY   N/A N/A N/A CALM      29.92S
$$


USA.gov is the U.S. government's official web portal to all federal, state and local government web resources and services.